Regional Weather Roundup
Issued by NWS Midland/Odessa, TX

Home | Current Version | Previous Version | Text Only | Print | Product List | Glossary On
Versions: 1 2 3 4 5 6 7 8 9 10 11 12 13 14 15 16 17 18 19 20 21 22 23 24 25 26 27 28 29 30 31 32 33 34 35 36 37 38 39 40 41 42 43 44 45 46 47 48 49 50
585
ASUS44 KMAF 241710
RWRMAF
MIDLAND AREA WEATHER ROUNDUP
NATIONAL WEATHER SERVICE MIDLAND TX
1200 PM CDT FRI MAR 24 2017

...IN SOUTHWEST TEXAS AND SOUTHEAST NEW MEXICO...

CITY           SKY/WX    TMP DP  RH WIND       PRES   REMARKS
ALPINE         SUNNY     60  19  20 W28G49    30.11S
ANDREWS        FAIR      65  27  24 W25G36    29.91R
ARTESIA        SUNNY     68  28  22 NW28G36   29.90R
BIG SPRING     SUNNY     65  28  24 SW31G39   29.92S
CARLSBAD       SUNNY     67  27  22 W25G38    29.91R
DRYDEN           N/A     74  16  11 W26G36    29.99R
FORT STOCKTON  SUNNY     68  24  19 W25G38    29.99S
GUAD PASS        N/A    N/A N/A N/A MISG        N/A
HOBBS          SUNNY     63  25  23 W28G38    29.90S
MARFA          SUNNY     59  20  22 W36G43    30.11F
MIDLAND AIRPK  SUNNY     66  28  23 W21G33    29.92S
MIDLAND INTL   SUNNY     67  26  21 W23G40    29.92R
ODESSA           N/A     66  25  21 W30G41    29.93R
PECOS          SUNNY     67  25  20 W33G44    29.97R
PRESIDIO       FAIR      69  17  14 W17G33    30.15R
SEMINOLE       SUNNY     63  29  27 W25G33    29.91R
SNYDER         SUNNY     66  30  25 W26G37    29.86S
WINK           LGT RAIN  67  25  20 W32G39    29.94R
$$
...OTHER STATIONS IN TEXAS...

CITY           SKY/WX    TMP DP  RH WIND       PRES   REMARKS
ABILENE        SUNNY     69  29  22 SW21G29   29.87F
AMARILLO       LGT RAIN  46  41  82 W31G39    29.66R WCI  36
AUSTIN         CLOUDY    73  69  87 S14       29.94F
BROWNSVILLE    PTSUNNY   82  69  64 S28G37    29.96S
CORPUS CHRISTI PTSUNNY   78  69  73 S28G35    29.96R
DALLAS FTW     CLOUDY    59  53  80 S7        29.87F
DEL RIO        SUNNY     78  24  13 W15G21    29.98S
EL PASO        MOSUNNY   59  25  27 W15G25    30.12R
HOUSTON INT    CLOUDY    77  62  59 S20G30    30.03S
LUBBOCK        CLOUDY    64  31  28 W33G45    29.77R
SAN ANGELO     SUNNY     73  25  16 W28G36    29.92F
SAN ANTONIO    PTSUNNY   74  66  76 S12       29.97S
WACO           LGT RAIN  60  56  86 W7G16     29.95R
WICHITA FALLS  NOT AVBL
$$
...OTHER LOCATIONS IN NEW MEXICO...

CITY           SKY/WX    TMP DP  RH WIND       PRES   REMARKS
ALAMAGORDO     SUNNY     57  23  26 NW6G17    30.09R
ALBUQUERQUE    PTSUNNY   54  27  35 N25G33    30.04S
CANNON AFB     CLOUDY    54  38  54 NW35G45   29.82R
CLOVIS         PTSUNNY   57  32  38 NW33G41   29.81R
HOLLOMAN AFB   MOSUNNY   58  24  26 NW12G23   30.11R
ROSWELL        SUNNY     66  26  22 NW31G48   29.95R
RUIDOSO        SUNNY     46  23  39 W24G40    30.04R WCI  38
SANTA FE       CLOUDY    49  36  61 N15       30.00R
TRUTH OR CONSE SUNNY     59  22  24 NW17G30   30.09R
TUCUMCARI      CLOUDY    60  31  33 N47G58    29.80R
$$




USA.gov is the U.S. government's official web portal to all federal, state and local government web resources and services.